Regional Weather Roundup
Issued by NWS Upton, NY

Current Version | Previous Version | Graphics & Text | Print | Product List | Glossary Off
Versions: 1 2 3 4 5 6 7 8 9 10 11 12 13 14 15 16 17 18 19 20 21 22 23 24 25 26 27 28 29 30 31 32 33 34 35 36 37 38 39 40 41 42 43 44 45 46 47 48 49 50
000 ASUS41 KOKX 210905 RWROKX REGIONAL WEATHER ROUNDUP NATIONAL WEATHER SERVICE NEW YORK NY 500 AM EDT TUE OCT 21 2014 NOTE: "FAIR" INDICATES FEW OR NO CLOUDS BELOW 12,000 FEET WITH NO SIGNIFICANT WEATHER AND/OR OBSTRUCTIONS TO VISIBILITY. NYZ071-072-176-178-NJZ106-104-211000- NEW YORK CITY METRO AREA CITY SKY/WX TMP DP RH WIND PRES REMARKS CENTRAL PARK MOCLDY 57 43 59 CALM 29.92F LAGUARDIA APRT CLOUDY 55 45 68 S5 29.90F KENNEDY INTL CLOUDY 56 46 69 SW3 29.91F NEWARK/LIBERTY CLOUDY 54 45 71 CALM 29.90F BRNX BOT. GARD N/A 52 45 76 E3 29.90F TETERBORO CLOUDY 52 45 77 CALM 29.90S $$ NYZ177-179-078>081-211000- LONG ISLAND NEW YORK CITY SKY/WX TMP DP RH WIND PRES REMARKS FARMINGDALE CLOUDY 52 47 83 N3 29.91F ISLIP CLOUDY 49 46 90 NE3 29.89F SHIRLEY CLOUDY 49 46 90 CALM 29.92F WESTHAMPTON CLOUDY 49 44 83 CALM 29.94F MONTAUK POINT N/A 56 52 86 CALM 29.95F $$ NYZ052-065-067-211000- HUDSON VALLEY CITY SKY/WX TMP DP RH WIND PRES REMARKS WHITE PLAINS MOCLDY 48 44 86 CALM 29.90S NEWBURGH LGT RAIN 50 46 87 CALM 29.92R MONTGOMERY LGT RAIN 46 43 89 CALM 29.90S POUGHKEEPSIE CLOUDY 49 44 83 CALM 29.91S ALBANY LGT RAIN 48 44 86 CALM 29.90F $$ NJZ001-105-106-008-010-013-015-019>022-104-211000- NEW JERSEY CITY SKY/WX TMP DP RH WIND PRES REMARKS NEWARK/LIBERTY CLOUDY 54 45 71 CALM 29.90F TETERBORO CLOUDY 52 45 77 CALM 29.90S CALDWELL CLOUDY 47 42 83 CALM 29.91F MORRISTOWN CLOUDY 46 45 93 CALM 29.91S SOMERVILLE LGT RAIN 47 44 90 CALM 29.89F SUSSEX CLOUDY 48 45 89 CALM 29.90F ANDOVER N/A 49 45 86 CALM 29.90S TRENTON CLOUDY 50 45 83 N3 29.90S MILLVILLE CLOUDY 51 49 92 CALM 29.89S ATLANTIC CITY CLOUDY 49 46 90 CALM 29.89F WRIGHTSTOWN CLOUDY 50 47 90 NE1 29.87F TOMS RIVER CLOUDY 48 45 87 CALM 29.90F BELMAR CLOUDY 54 43 66 SW3 29.89F $$ PAZ047>061-062-071-211000- EASTERN PENNSYLVANIA CITY SKY/WX TMP DP RH WIND PRES REMARKS PHILADELPHIA CLOUDY 54 48 80 CALM 29.89F ALLENTOWN LGT RAIN 52 48 86 NE5 29.87F SCRANTON LGT RAIN 52 46 80 N3 29.85F $$ CTZ002-004>006-009-010-012-RIZ004-006-007-MAZ004-011-015-211000- SOUTHERN NEW ENGLAND IN CT CITY SKY/WX TMP DP RH WIND PRES REMARKS BRADLEY INTL PTCLDY 44 40 85 CALM 29.92F HARTFORD PTCLDY 46 43 89 VRB6 29.93F DANBURY PTCLDY 42 31 64 CALM 29.92F WTRBRY/OXFORD PTCLDY 45 39 81 CALM 29.92S BRIDGEPORT CLOUDY 53 48 83 N3 29.91F MERIDEN MOCLDY 44 42 93 CALM 29.93S NEW HAVEN MOCLDY 51 46 83 N5 29.92F CHESTER FAIR 46 45 93 CALM 29.94F GROTON CLOUDY 48 48 100 N5 29.93F WILLIMANTIC PTCLDY 40 38 93 N3 29.95F IN RI CITY SKY/WX TMP DP RH WIND PRES REMARKS PROVIDENCE LGT RAIN 48 46 93 N5 29.97S FOG BLOCK ISLAND CLOUDY 59 52 77 SW3 29.95F WESTERLY MOCLDY 52 51 97 N3 29.95F IN MA CITY SKY/WX TMP DP RH WIND PRES REMARKS BOSTON CLOUDY 51 48 89 SE5 29.98S WORCESTER MOCLDY 46 41 82 E3 29.95F WESTFIELD MOCLDY 44 41 89 CALM 29.93F PROVINCETOWN MOCLDY 54 48 82 E5 30.00F NANTUCKET MOCLDY 55 52 89 E8 29.99F $$ ANZ330-335-338-340-345-350-353-355-211000- COASTAL MARINE OBSERVATIONS STATION/POSITION TIME SKY/WX TEMP WIND PRES VSBY WAVE AIR SEA DIR/SP/G HT/PER (UTC) (F) (DEG/KT/KT) (MB) (MI) (FT/S) NY HARB ENTRANCE NOT AVBL 4S FIRE IS 0900 63 N/A 5/ 6 20S FIRE ISLAND 0900 63 63 260/ 6/ 8 1012.6 5/ 6 23SW MTP 0900 N/A 5/ 6 HUDSON CANYON 0900 65 66 230/ 6/ 8 1013.0 4/ 7 EXECUTION ROCKS 0900 58 63 20/ 2/ 4 N/A WESTERN LI SOUND 0900 59 200/ 4/ 6 N/A 0 CENTRAL LI SOUND 0800 61 63 230/ 6/ 8 N/A 1/ 3 EASTERN LI SOUND 0800 60 63 210/ 4/ 10 N/A ROBBINS REEF 0900 57 190/ 4/ 5 1011.3 $$ >>>>>>>>>>>>>>>>>>>>>>>>>>>> KEY <<<<<<<<<<<<<<<<<<<<<<<<<<< > < > SKY/WX - SKY CONDITION/PRESENT WEATHER < > TMP - TEMPERATURE IN FAHRENHEIT < > DP - DEWPOINT IN FAHRENHEIT < > RH - RELATIVE HUMIDITY IN PERCENT < > WIND - DIRECTION AND SPEED IN MPH < > PRES - MEAN SEA LEVEL PRESSURE IN INCHES OF HG < > WCI - WIND CHILL INDEX < > VSB - VISIBILITY IN MILES < > HX - HEAT INDEX < > TC - TEMPERATURE IN CELSIUS < > VRB - VARIABLE WIND DIRECTION < > < >>>>>>>>>>>>>>>>>>>>>>>>>>>> KEY <<<<<<<<<<<<<<<<<<<<<<<<<<<

USA.gov is the U.S. government's official web portal to all federal, state and local government web resources and services.